Regional Weather Roundup
Issued by NWS

Home | Current Version | Previous Version | Graphics & Text | Print | Product List | Glossary On
Versions: 1 2 3 4 5 6 7 8 9 10 11 12 13 14 15 16 17 18 19 20 21 22 23 24 25 26 27 28 29 30 31 32 33 34 35 36 37 38 39 40 41 42 43 44 45 46 47 48 49 50
000
ASUS43 KLOT 271158
RWRIL

ILLINOIS REGIONAL WEATHER ROUNDUP
NATIONAL WEATHER SERVICE CHICAGO/ROMEOVILLE IL
600 AM CST THU NOV 27 2014

NOTE: "FAIR" INDICATES FEW OR NO CLOUDS BELOW 12,000 FEET WITH NO
SIGNIFICANT WEATHER AND/OR OBSTRUCTIONS TO VISIBILITY.

* THESE STATIONS ARE NOT UNDER NWS QUALITY CONTROL. THEY ALSO MAY NOT
  REPORT WEATHER SUCH AS PRECIPITATION OR FOG.

ILZ001-002-007-009-015-016-024-271300-
NORTHWEST ILLINOIS

CITY           SKY/WX    TMP DP  RH WIND       PRES   REMARKS
MOLINE         CLOUDY    26  20  77 W9        30.36R WCI  17
6HR MIN TEMP:  23; 6HR MAX TEMP:  26;

$$

ILZ003-004-008-010-011-017-018-271300-
NORTH CENTRAL ILLINOIS

CITY           SKY/WX    TMP DP  RH WIND       PRES   REMARKS
ROCKFORD       CLOUDY    22  18  85 NW9       30.32R FOG     WCI  12
$$

ILZ005-006-012>014-019>023-271300-
NORTHEAST ILLINOIS

CITY           SKY/WX    TMP DP  RH WIND       PRES   REMARKS
CHICAGO-OHARE  CLOUDY    24  19  81 NW9       30.26R WCI  14
6HR MIN TEMP:  23; 6HR MAX TEMP:  26; 6HR PCP: TRACE;

CHICAGO-MIDWAY NOT AVBL
AURORA         CLOUDY    23  18  81 NW14      30.29R HAZE    WCI  11
6HR MIN TEMP:  18; 6HR MAX TEMP:  25;

WAUKEGAN       NOT AVBL
DUPAGE AIRPORT CLOUDY    22  18  85 NW8       30.26R WCI  12
6HR MIN TEMP:  20; 6HR MAX TEMP:  25;

WHEELING       CLOUDY    24  19  81 NW8       30.27R WCI  15
6HR MIN TEMP:  22; 6HR MAX TEMP:  26;

NORTHERLY ISL    N/A     26  20  77 W3          N/A
$$

LMZ740>746-271300-
SOUTHERN LAKE MICHIGAN

STATION/POSITION SKY/WX   TEMP    WIND        PRES    VSBY  WAVE
                          AIR SEA DIR/SP/G                  HT/PER
                          (F)     (DEG/KT/KT) (MB)    (MI)  (FT/S)
SOUTHERN BUOY              32 42  320/ 19/ 23 1023.0R         3/ 5
WAUKEGAN HARBOR            23     320/  8/ 10   N/A
HARRISON CRIB              25     310/ 16/ 20   N/A
BURNHAM HARBOR             26     260/  5/ 12   N/A
CALUMET HARBOR             25     290/  8/ 11 1023.1R
MICHIGAN CITY              31     290/ 21/ 25   N/A
$$

ILZ025>027-034>036-040-047-049-050-058-095>099-271300-
WEST-CENTRAL ILLINOIS

CITY           SKY/WX    TMP DP  RH WIND       PRES   REMARKS
$$

ILZ028>032-037-038-041>044-048-051>054-059>061-271300-
CENTRAL ILLINOIS

CITY           SKY/WX    TMP DP  RH WIND       PRES   REMARKS
PEORIA         NOT AVBL
SPRINGFIELD    CLOUDY    26  22  84 NW9       30.37R WCI  17
6HR MIN TEMP:  23; 6HR MAX TEMP:  26;

TAYLORVILLE    NOT AVBL
$$

ILZ033-039-045-046-055>057-062-063-271300-
EAST-CENTRAL ILLINOIS

CITY           SKY/WX    TMP DP  RH WIND       PRES   REMARKS
$$

ILZ079-100>102-271300-
SOUTHWEST ILLINOIS

CITY           SKY/WX    TMP DP  RH WIND       PRES   REMARKS
$$

ILZ064>066-069>071-074>076-080>082-084>086-088>090-092>094-271300-
SOUTH-CENTRAL ILLINOIS

CITY           SKY/WX    TMP DP  RH WIND       PRES   REMARKS
CARBONDALE     CLOUDY    30  26  85 N14       30.39R WCI  19
6HR MIN TEMP:  30; 6HR MAX TEMP:  33; 6HR PCP:  0.02;

$$

ILZ067-068-072-073-078-083-087-091-271300-
SOUTHEAST ILLINOIS

CITY           SKY/WX    TMP DP  RH WIND       PRES   REMARKS
$$

ABBREVIATIONS USED IN REMARKS
   TC - TEMPERATURE IN CELSIUS
  WCI - WIND CHILL INDEX
   HX - HEAT INDEX
  VSB - VISIBILITY
$$




USA.gov is the U.S. government's official web portal to all federal, state and local government web resources and services.